Weather History for LHBP - June, 2013

Change the Weather History Date:

Friday, June 28, 2013

  Actual Average Record
Temperature  
Mean Temperature 61 °F -  
Max Temperature 69 °F 78 °F 95 °F (1997)
Min Temperature 53 °F 57 °F 42 °F (2000)
Degree Days  
Heating Degree Days 4    
Growing Degree Days 11 (Base 50)    
Moisture  
Dew Point 55 °F    
Average Humidity 84    
Maximum Humidity 100    
Minimum Humidity 52    
Precipitation  
Precipitation 0.00 in - - ()
Sea Level Pressure  
Sea Level Pressure 30.06 in    
Wind  
Wind Speed 4 mph ()    
Max Wind Speed 12 mph    
Max Gust Speed -    
Visibility 5.9 miles    
Events Rain , Thunderstorm    
Averages and records for this station are not official NWS values.
T = Trace of Precipitation, MM = Missing Value Source: Averaged Metar Reports

Daily Weather History Graph

Daily Weather History Graph

Search for Another Location

Airport or City:

Trip Planner

Search our weather history database for the weather conditions in past years. The results will help you decide how hot, cold, wet, or windy it might be!

Date:

Astronomy

Jun. 28, 2013 Rise Set
Actual Time 4:48 AM CEST 8:43 PM CEST
Civil Twilight 4:08 AM CEST 9:24 PM CEST
Nautical Twilight 3:12 AM CEST 10:19 PM CEST
Astronomical Twilight 1:46 AM CEST 11:45 PM CEST
Moon 11:35 PM CEST (6/28) 11:01 AM CEST (6/28)
Length of Visible Light 17h 16m
Length of Day
15h 55m
Waning Gibbous, 69% of the Moon is Illuminated
Jun 28
Waning Gibbous
Jun 30
Last Quarter
Jul 8
New
Jul 16
First Quarter
Jul 22
Full

Hourly Weather History & Observations

Time (CEST) Temp. Dew Point Humidity Pressure Visibility Wind Dir Wind Speed Gust Speed Precip Events Conditions
12:00 AM 57.2 °F 55.4 °F 94% 30.12 in - Variable 3.5 mph - N/A   Clear
12:30 AM 57.2 °F 55.4 °F 94% 30.12 in - NNW 4.6 mph - N/A   Clear
1:00 AM 55.4 °F 53.6 °F 94% 30.12 in - Variable 3.5 mph - N/A   Clear
1:30 AM 53.6 °F 53.6 °F 100% 30.12 in - Variable 1.2 mph - N/A   Clear
2:00 AM 53.6 °F 53.6 °F 100% 30.09 in - NNW 4.6 mph - N/A   Clear
2:30 AM 55.4 °F 55.4 °F 100% 30.09 in - North 4.6 mph - N/A   Clear
3:00 AM 55.4 °F 55.4 °F 100% 30.09 in - Variable 3.5 mph - N/A   Clear
3:30 AM 57.2 °F 55.4 °F 94% 30.09 in - Variable 3.5 mph - N/A   Clear
4:00 AM 57.2 °F 55.4 °F 94% 30.09 in - Variable 3.5 mph - N/A   Clear
4:30 AM 57.2 °F 55.4 °F 94% 30.09 in - Variable 1.2 mph - N/A   Clear
5:00 AM 55.4 °F 55.4 °F 100% 30.09 in - Variable 1.2 mph - N/A   Clear
5:30 AM 55.4 °F 55.4 °F 100% 30.06 in - Variable 3.5 mph - N/A   Clear
6:00 AM 55.4 °F 55.4 °F 100% 30.06 in - Variable 3.5 mph - N/A   Clear
6:30 AM 55.4 °F 55.4 °F 100% 30.06 in - Variable 1.2 mph - N/A   Clear
7:00 AM 57.2 °F 57.2 °F 100% 30.06 in 6.2 mi Variable 2.3 mph - N/A   Scattered Clouds
7:30 AM 60.8 °F 55.4 °F 82% 30.06 in 6.2 mi NW 4.6 mph - N/A   Scattered Clouds
8:00 AM 62.6 °F 53.6 °F 72% 30.06 in 6.2 mi NW 5.8 mph - N/A   Scattered Clouds
8:30 AM 64.4 °F 53.6 °F 68% 30.06 in 6.2 mi Variable 4.6 mph - N/A   Scattered Clouds
9:00 AM 62.6 °F 53.6 °F 72% 30.06 in 6.2 mi SW 5.8 mph - N/A   Scattered Clouds
9:30 AM 64.4 °F 53.6 °F 68% 30.06 in 6.2 mi West 5.8 mph - N/A   Scattered Clouds
10:00 AM 64.4 °F 51.8 °F 64% 30.06 in 6.2 mi SW 6.9 mph - N/A   Scattered Clouds
10:30 AM 64.4 °F 51.8 °F 64% 30.06 in 6.2 mi SW 5.8 mph - N/A   Mostly Cloudy
11:00 AM 66.2 °F 55.4 °F 68% 30.06 in 6.2 mi West 5.8 mph - N/A   Scattered Clouds
11:30 AM 68.0 °F 55.4 °F 64% 30.06 in 6.2 mi West 5.8 mph - N/A   Scattered Clouds
12:00 PM 68.0 °F 53.6 °F 60% 30.06 in 6.2 mi West 4.6 mph - N/A   Scattered Clouds
12:30 PM 68.0 °F 51.8 °F 56% 30.06 in 6.2 mi Variable 3.5 mph - N/A   Scattered Clouds
1:00 PM 68.0 °F 51.8 °F 56% 30.06 in 6.2 mi Variable 3.5 mph - N/A   Mostly Cloudy
1:30 PM 69.8 °F 51.8 °F 53% 30.06 in 6.2 mi Variable 3.5 mph - N/A   Mostly Cloudy
2:00 PM 69.8 °F 51.8 °F 53% 30.04 in 6.2 mi Variable 3.5 mph - N/A   Mostly Cloudy
2:30 PM 68.0 °F 50.0 °F 52% 30.04 in 6.2 mi West 5.8 mph - N/A   Mostly Cloudy
3:00 PM 62.6 °F 57.2 °F 82% 30.04 in 5.0 mi SSE 11.5 mph - N/A Rain Light Rain Showers
3:30 PM 60.8 °F 55.4 °F 82% 30.04 in 5.0 mi SE 10.4 mph - N/A Rain Light Rain Showers
4:00 PM 60.8 °F 55.4 °F 82% 30.06 in 3.7 mi South 9.2 mph - N/A Rain , Thunderstorm Light Thunderstorms and Rain
4:30 PM 59.0 °F 53.6 °F 82% 30.04 in 4.3 mi Variable 3.5 mph - N/A Rain , Thunderstorm Light Thunderstorms and Rain
5:00 PM 60.8 °F 59.0 °F 94% 30.04 in 6.2 mi WNW 5.8 mph - N/A Rain Light Rain Showers
5:30 PM 60.8 °F 59.0 °F 94% 30.04 in 6.2 mi NNW 6.9 mph - N/A   Mostly Cloudy
6:00 PM 62.6 °F 59.0 °F 88% 30.04 in 6.2 mi NW 5.8 mph - N/A   Mostly Cloudy
6:30 PM 62.6 °F 57.2 °F 82% 30.04 in 6.2 mi WNW 8.1 mph - N/A   Scattered Clouds
7:00 PM 60.8 °F 57.2 °F 88% 30.04 in - NW 9.2 mph - N/A   Clear
7:30 PM 60.8 °F 57.2 °F 88% 30.04 in - North 4.6 mph - N/A   Clear
8:00 PM 60.8 °F 57.2 °F 88% 30.04 in - WNW 4.6 mph - N/A   Clear
8:30 PM 59.0 °F 57.2 °F 94% 30.04 in - Variable 3.5 mph - N/A   Clear
9:00 PM 59.0 °F 55.4 °F 88% 30.04 in - Variable 2.3 mph - N/A   Clear
9:30 PM 57.2 °F 57.2 °F 100% 30.04 in - Variable 3.5 mph - N/A   Clear
10:00 PM 57.2 °F 57.2 °F 100% 30.04 in - Variable 2.3 mph - N/A   Clear
10:30 PM 59.0 °F 57.2 °F 94% 30.04 in - NNW 4.6 mph - N/A   Clear
11:00 PM 59.0 °F 57.2 °F 94% 30.04 in - NNW 5.8 mph - N/A   Clear
11:30 PM 57.2 °F 55.4 °F 94% 30.04 in - Variable 2.3 mph - N/A   Clear